Regional Weather Roundup
Issued by NWS Kansas City/Pleasant Hill, MO

Home | Current Version | Previous Version | Graphics & Text | Print | Product List | Glossary Off
Versions: 1 2 3 4 5 6 7 8 9 10 11 12 13 14 15 16 17 18 19 20 21 22 23 24 25 26 27 28 29 30 31 32 33 34 35 36 37 38 39 40 41 42 43 44 45 46 47 48 49 50

712
ASUS43 KEAX 202010
RWREAX

WEATHER ROUNDUP FOR EASTERN KANSAS AND NORTHWEST MISSOURI
NATIONAL WEATHER SERVICE KANSAS CITY/PLEASANT HILL MO
300 PM CDT THU JUL 20 2017

KSZ040-057-103>105-MOZ028-029-037-043-202100-
...KANSAS CITY METROPOLITAN AREA...

CITY           SKY/WX    TMP DP  RH WIND       PRES   REMARKS
K.C. INTL      MOSUNNY   96  76  52 SW12      30.00F HX 109
K.C. DOWNTOWN  SUNNY     97  75  49 SW13      29.98F HX 109
LEES SUMMIT    SUNNY     96  75  50 SW10G20   30.01F HX 108
OLATHE - IXD   SUNNY     96  74  48 S9        30.01F HX 107
OLATHE - OJC   SUNNY     93  75  55 SW10      30.02F HX 104
LAWRENCE       SUNNY     99  73  43 S13       29.98F HX 109

$$

MOZ001>008-011>017-020>025-030>033-038>040-044>046-053-054-202100-
...NORTHERN AND CENTRAL MISSOURI...

CITY           SKY/WX    TMP DP  RH WIND       PRES   REMARKS
ST. JOSEPH     SUNNY     94  80  64 SW9       29.98S HX 113
MOSBY          CLEAR     95  73  49 S10       29.99F HX 105
WARRENSBURG    SUNNY     95  72  46 S9        30.01F HX 103
WHITEMAN AFB   MOSUNNY   97  74  48 SW12      30.01F HX 107
CLINTON        SUNNY     93  77  59 SW8       30.03F HX 107
SEDALIA        NOT AVBL
WARSAW         NOT AVBL
CHILLICOTHE      N/A     95  80  61 VRB5      29.99F HX 114
KIRKSVILLE     SUNNY     94  77  57 SW13      30.00F HX 108

$$

MOZ041-047>049-056>058-063>065-088>090-097-202100-
...EASTERN AND SOUTHERN MISSOURI...

CITY           SKY/WX    TMP DP  RH WIND       PRES   REMARKS
ST. LOUIS INTL MOSUNNY  101  65  30 W16       30.02F HX 104
SPIRIT OF STL  SUNNY     98  71  41 W10       30.01F HX 106
COLUMBIA       SUNNY     98  73  44 SW10      30.03F HX 108
JEFFERSON CITY SUNNY     97  72  44 W6        30.00F HX 105
ROLLA          SUNNY     93  71  48 SW7       30.05F HX 100
OSAGE BEACH    SUNNY     98  69  38 VRB7      30.03F HX 104
SPRINGFIELD    SUNNY     95  69  42 W12       30.08F HX 100
BRANSON        MOSUNNY   93  70  46 CALM      30.11F HX  99
JOPLIN         MOSUNNY   97  74  47 SW14      30.06F HX 108
WEST PLAINS    SUNNY     94  67  41 S6        30.10F HX  97

$$

IAZ060-094-KSZ022-034>040-054-083-096-NEZ052-066-093-202100-
...KANSAS...SOUTHEAST NEBRASKA AND IOWA...

CITY           SKY/WX    TMP DP  RH WIND       PRES   REMARKS
TOPEKA         SUNNY     99  74  44 S15       29.97F HX 110
MANHATTAN      SUNNY    102  70  35 S12G20    29.96F HX 110
EMPORIA        SUNNY     99  69  37 S15       30.00F HX 105
CHANUTE        MOSUNNY   99  72  41 SW12G22   30.03F HX 108
WICHITA        MOSUNNY  102  64  28 S17G23    29.98F HX 105
OMAHA          MOSUNNY   97  72  44 SE5       29.95R HX 105
LINCOLN        SUNNY     93  74  53 S7        29.96F HX 103
FALLS CITY     SUNNY     96  74  48 S12       29.95F HX 107
LAMONI         SUNNY     92  78  63 SW8       29.99S HX 107
DES MOINES     MOSUNNY   96  72  45 SW6       29.93F HX 104

$$





USA.gov is the U.S. government's official web portal to all federal, state and local government web resources and services.